1299283232635,40.8566
1299283292635,40.8074
1299283352635,40.7947
1299283412635,40.7973
1299283472635,40.7350
1299283532635,40.8458
1299283592635,40.8371
1299283652635,40.7229
1299283712635,40.7810
1299283772635,40.7204
1299283832635,40.7650
1299283892635,40.7212
1299283952635,40.6499
1299284012635,40.7657
1299284072635,40.7329
1299284132635,40.6817
1299284192635,40.7376
1299284252635,40.6387
1299284312635,40.6139
1299284372635,40.6149
1299284432635,40.6458
1299284492635,40.6245
1299284552635,40.7302
1299284612635,40.6382
1299284672635,40.6569
1299284732635,40.6158
1299284792635,40.6251
1299284852635,40.8091
1299284912635,40.6515
1299284972635,40.8340
1299285032635,40.7581
1299285092635,40.6637
1299285152635,40.6437
1299285212635,40.8317
1299285272635,40.6868
1299285332635,40.7637
1299285392635,40.6950
1299285452635,40.7359
1299285512635,40.6858
1299285572635,40.8060
1299285632635,40.7218
1299285692635,40.7483
1299285752635,40.7265
1299285812635,40.7368
1299285872635,40.7759
1299285932635,40.8365
1299285992635,40.7959
1299286052635,40.7661
1299286112635,40.8992
1299286172635,40.7335
1299286232635,40.7829
1299286292635,40.8033
1299286352635,40.7509
1299286412635,40.8388
1299286472635,40.7922
1299286532635,40.7906
1299286592635,40.7553
1299286652635,40.9480
1299286712635,40.9105
1299286772635,41.0044
1299286832647,40.8625
1299286892647,40.9366
1299286952647,40.7680
1299287012647,40.8219
1299287072647,40.7083
1299287132647,40.8598
1299287192647,40.9361
1299287252647,40.9219
1299287312647,40.9409
1299287372647,41.0087
1299287432647,41.0968
1299287492647,41.1600
1299287552647,40.9519
1299287612647,40.9707
1299287672647,40.9277
1299287732647,40.8581
1299287792647,40.8966
1299287852647,40.8587
1299287912647,40.9443
1299287972647,40.8179
1299288032647,40.9359
1299288092647,40.7583
1299288152647,40.7715
1299288212647,40.7459
1299288272647,40.7713
1299288332647,40.8908
1299288392647,40.8611
1299288452647,40.7815
1299288512647,40.8201
1299288572647,40.9341
1299288632647,40.7871
1299288692647,40.7996
1299288752647,40.8252
1299288812647,40.8195
1299288872647,40.8451
1299288932647,40.9100
1299288992647,40.7978
1299289052647,40.8368
1299289112647,40.8354
1299289172647,40.9210
1299289232647,40.9301
1299289292647,40.7650
1299289352647,40.9202
1299289412647,40.9783
1299289472647,40.9808
1299289532647,40.9973
1299289592647,40.9054
1299289652647,41.0357
1299289712647,40.9542
1299289772647,40.9528
1299289832647,40.9564
1299289892647,40.9265
1299289952647,41.0218
1299290012647,40.9872
1299290072647,41.0555
1299290132647,41.1060
1299290192647,41.1388
1299290252647,40.9799
1299290312647,41.1617
1299290372647,41.0993
1299290432658,41.0493
1299290492658,41.0131
1299290552658,41.1474
1299290612658,41.0584
1299290672658,41.0059
1299290732658,41.0828
1299290792658,41.0206
1299290852658,40.9251
1299290912658,40.9502
1299290972658,40.9995
1299291032658,40.9408
1299291092658,41.0865
1299291152658,40.9862
1299291212658,40.8874
1299291272658,40.9649
1299291332658,40.9313
1299291392658,40.9717
1299291452658,40.8515
1299291512658,41.0436
1299291572658,40.8968
1299291632658,40.8199
1299291692658,40.8272
1299291752658,40.8834
1299291812658,40.8495
1299291872658,40.9613
1299291932658,40.9711
1299291992658,40.9370
1299292052658,40.9204
1299292112658,40.7535
1299292172658,40.9294
1299292232658,40.8320
1299292292658,40.9148
1299292352658,40.7667
1299292412658,40.7705
1299292472658,40.7752
1299292532658,40.9909
1299292592658,40.9166
1299292652658,40.9770
1299292712658,40.8433
1299292772658,40.9532
1299292832658,40.8782
1299292892658,40.9111
1299292952658,41.0351
1299293012658,41.0125
1299293072658,41.2245
1299293132658,41.1700
1299293192658,41.0976
1299293252658,41.1379
1299293312658,41.1143
1299293372658,41.1691
1299293432658,41.1361
1299293492658,41.1123
1299293552658,41.0909
1299293612658,41.2244
1299293672658,41.0465
1299293732658,41.1154
1299293792658,41.1034
1299293852658,41.1641
1299293912658,41.1288
1299293972658,41.0381
1299294032670,41.1443
1299294092670,41.1530
1299294152670,41.0531
1299294212670,41.1038
1299294272670,41.2049
1299294332670,41.2697
1299294392670,41.1781
1299294452670,41.1896
1299294512670,41.1702
1299294572670,41.2511
1299294632670,41.1632
1299294692670,41.2329
1299294752670,41.1769
1299294812670,41.2319
1299294872670,41.1961
1299294932670,41.2871
1299294992670,41.2140
1299295052670,41.3399
1299295112670,41.2851
1299295172670,41.3638
1299295232670,41.2184
1299295292670,41.1701
1299295352670,41.2088
1299295412670,41.1421
1299295472670,41.2519
1299295532670,41.2911
1299295592670,41.2182
1299295652670,41.4120
1299295712670,41.4089
1299295772670,41.4069
1299295832670,41.4069
1299295892670,41.4877
1299295952670,41.2855
1299296012670,41.4746
1299296072670,41.4590
1299296132670,41.4385
1299296192670,41.3434
1299296252670,41.4086
1299296312670,41.3307
1299296372670,41.2906
1299296432670,41.4496
1299296492670,41.2400
1299296552670,41.2270
1299296612670,41.1916
1299296672670,41.2750
1299296732670,41.3650
1299296792670,41.2530
1299296852670,41.2757
1299296912670,41.2191
1299296972670,41.1040
1299297032670,41.1277
1299297092670,41.2336
1299297152670,41.2120
1299297212670,41.1436
1299297272670,41.2613
1299297332670,41.2395
1299297392670,41.3705
1299297452670,41.2990
1299297512670,41.3166
1299297572670,41.3371
1299297632681,41.2093
1299297692681,41.1032
1299297752681,41.3086
1299297812681,41.3488
1299297872681,41.2874
1299297932681,41.3045
1299297992681,41.3513
1299298052681,41.4114
1299298112681,41.3647
1299298172681,41.2890
1299298232681,41.4560
1299298292681,41.3187
1299298352681,41.3821
1299298412681,41.4691
1299298472681,41.5029
1299298532681,41.5653
1299298592681,41.4406
1299298652681,41.4275
1299298712681,41.3864
1299298772681,41.4122
1299298832681,41.4569
1299298892681,41.4460
1299298952681,41.3989
1299299012681,41.5197
1299299072681,41.4884
1299299132681,41.3484
1299299192681,41.4910
1299299252681,41.5019
1299299312681,41.5249
1299299372681,41.4514
1299299432681,41.4505
1299299492681,41.4254
1299299552681,41.4850
1299299612681,41.4104
1299299672681,41.4466
1299299732681,41.4125
1299299792681,41.4598
1299299852681,41.3952
1299299912681,41.5612
1299299972681,41.3813
1299300032681,41.4240
1299300092681,41.3514
1299300152681,41.4512
1299300212681,41.4384
1299300272681,41.3139
1299300332681,41.3524
1299300392681,41.3960
1299300452681,41.4073
1299300512681,41.3882
1299300572681,41.4511
1299300632681,41.3300
1299300692681,41.3815
1299300752681,41.3696
1299300812681,41.3334
1299300872681,41.4034
1299300932681,41.4510
1299300992681,41.2761
1299301052681,41.2177
1299301112681,41.1985
1299301172681,41.3335
1299301232693,41.3516
1299301292693,41.3949
1299301352693,41.4227
1299301412693,41.2852
1299301472693,41.3102
1299301532693,41.3860
1299301592693,41.3092
1299301652693,41.3744
1299301712693,41.4509
1299301772693,41.3113
1299301832693,41.3985
1299301892693,41.4502
1299301952693,41.2302
1299302012693,41.3310
1299302072693,41.3575
1299302132693,41.3053
1299302192693,41.3036
1299302252693,41.3671
1299302312693,41.3569
1299302372693,41.3828
1299302432693,41.4865
1299302492693,41.3123
1299302552693,41.4516
1299302612693,41.3094
1299302672693,41.4687
1299302732693,41.4561
1299302792693,41.2249
1299302852693,41.4333
1299302912693,41.4886
1299302972693,41.4607
1299303032693,41.4426
1299303092693,41.5015
1299303152693,41.5020
1299303212693,41.3538
1299303272693,41.3854
1299303332693,41.4544
1299303392693,41.5927
1299303452693,41.3762
1299303512693,41.3649
1299303572693,41.3608
1299303632693,41.4567
1299303692693,41.3637
1299303752693,41.4401
1299303812693,41.4241
1299303872693,41.3036
1299303932693,41.3459
1299303992693,41.4058
1299304052693,41.5325
1299304112693,41.5091
1299304172693,41.5375
1299304232693,41.4307
1299304292693,41.4737
1299304352693,41.3882
1299304412693,41.5072
1299304472693,41.5227
1299304532693,41.3923
1299304592693,41.3774
1299304652693,41.4466
1299304712693,41.4320
1299304772693,41.4377
1299304832705,41.5033
1299304892705,41.5286
1299304952705,41.4579
1299305012705,41.5123
1299305072705,41.4789
1299305132705,41.4436
1299305192705,41.4948
1299305252705,41.4341
1299305312705,41.4377
1299305372705,41.4124
1299305432704,41.5474
1299305492704,41.5999
1299305552704,41.5933
1299305612705,41.5070
1299305672705,41.6539
1299305732705,41.4287
1299305792705,41.4454
1299305852705,41.4828
1299305912705,41.4892
1299305972705,41.5458
1299306032705,41.4737
1299306092705,41.6572
1299306152705,41.7716
1299306212705,41.7006
1299306272705,41.7239
1299306332705,41.6010
1299306392705,41.5693
1299306452705,41.7305
1299306512705,41.5443
1299306572705,41.4816
1299306632705,41.6086
1299306692705,41.5529
1299306752704,41.4762
1299306812704,41.5687
1299306872704,41.5320
1299306932704,41.5567
1299306992705,41.5371
1299307052705,41.5323
1299307112705,41.4608
1299307172705,41.5279
1299307232705,41.4325
1299307292705,41.5715
1299307352705,41.4863
1299307412705,41.5000
1299307472705,41.5736
1299307532705,41.4838
1299307592705,41.4634
1299307652705,41.5923
1299307712705,41.5397
1299307772705,41.5245
1299307832705,41.6124
1299307892705,41.6372
1299307952705,41.6705
1299308012705,41.7008
1299308072705,41.5793
1299308132704,41.6009
1299308192704,41.6285
1299308252704,41.6202
1299308312705,41.5967
1299308372705,41.6350
1299308432716,41.8110
1299308492716,41.5454
1299308552716,41.6172
1299308612716,41.6636
1299308672716,41.7009
1299308732716,41.7089
1299308792716,41.7316
1299308852716,41.8018
1299308912716,41.6489
1299308972716,41.8008
1299309032716,41.6033
1299309092716,41.7328
1299309152716,41.6498
1299309212716,41.7143
1299309272716,41.6772
1299309332716,41.7174
1299309392716,41.6023
1299309452716,41.7881
1299309512716,41.7302
1299309572716,41.7253
1299309632716,41.6922
1299309692716,41.6391
1299309752716,41.8009
1299309812716,41.8080
1299309872716,41.6243
1299309932716,41.6550
1299309992716,41.6109
1299310052716,41.6031
1299310112716,41.6722
1299310172716,41.7198
1299310232716,41.6341
1299310292716,41.6728
1299310352716,41.7053
1299310412716,41.6258
1299310472716,41.5753
1299310532716,41.5983
1299310592716,41.6584
1299310652716,41.5038
1299310712716,41.4945
1299310772716,41.5926
1299310832716,41.4984
1299310892716,41.7421
1299310952716,41.6145
1299311012716,41.6820
1299311072716,41.6429
1299311132716,41.6548
1299311192716,41.7225
1299311252716,41.7653
1299311312716,41.5887
1299311372716,41.6154
1299311432716,41.5826
1299311492716,41.8260
1299311552716,41.5932
1299311612716,41.5538
1299311672716,41.7731
1299311732716,41.7136
1299311792716,41.6610
1299311852716,41.6548
1299311912716,41.6683
1299311972716,41.6498
1299312032728,41.6733
1299312092728,41.7635
1299312152728,41.7145
1299312212728,41.7206
1299312272728,41.6989
1299312332728,41.6427
1299312392728,41.6440
1299312452728,41.7600
1299312512728,41.7388
1299312572728,41.8113
1299312632728,41.7688
1299312692728,41.7850
1299312752728,41.6962
1299312812728,41.6869
1299312872728,41.8401
1299312932728,41.7759
1299312992728,41.8356
1299313052728,41.8303
1299313112728,41.8287
1299313172728,41.6704
1299313232728,41.7043
1299313292728,41.6894
1299313352728,41.6092
1299313412728,41.6503
1299313472728,41.7613
1299313532728,41.6832
1299313592728,41.6467
1299313652728,41.7044
1299313712728,41.6762
1299313772728,41.6973
1299313832728,41.7471
1299313892728,41.6401
1299313952728,41.7687
1299314012728,41.7297
1299314072728,41.6268
1299314132728,41.7306
1299314192728,41.7116
1299314252728,41.5750
1299314312728,41.6337
1299314372728,41.6245
1299314432728,41.6843
1299314492728,41.6965
1299314552728,41.8953
1299314612728,41.7731
1299314672728,41.8598
1299314732728,41.7146
1299314792728,41.8006
1299314852728,41.8509
1299314912728,41.7860
1299314972728,41.7927
1299315032728,41.7052
1299315092728,41.8549
1299315152728,41.7610
1299315212728,41.7964
1299315272728,41.8211
1299315332728,41.7494
1299315392728,41.9188
1299315452728,41.8176
1299315512728,41.8373
1299315572728,41.7600
1299315632739,41.7959
1299315692739,41.8630
1299315752739,41.7767
1299315812739,41.8545
1299315872739,41.8732
1299315932739,41.7524
1299315992739,41.8309
1299316052739,41.7164
1299316112739,41.8982
1299316172739,41.8707
1299316232739,41.9274
1299316292739,42.0071
1299316352739,41.9827
1299316412739,41.9914
1299316472739,41.8538
1299316532739,41.7859
1299316592739,41.9630
1299316652739,41.8257
1299316712739,41.8655
1299316772739,41.8517
1299316832739,41.9763
1299316892739,41.8590
1299316952739,41.8924
1299317012739,41.8777
1299317072739,41.9847
1299317132739,41.9076
1299317192739,41.9531
1299317252739,42.1479
1299317312739,42.1198
1299317372739,42.0849
1299317432739,42.1221
1299317492739,42.2586
1299317552739,42.1473
1299317612739,42.0757
1299317672739,41.9743
1299317732739,41.9786
1299317792739,42.0160
1299317852739,42.0374
1299317912739,41.8786
1299317972739,41.9206
1299318032739,41.8817
1299318092739,41.9323
1299318152739,41.9601
1299318212739,41.8940
1299318272739,41.9438
1299318332739,42.0179
1299318392739,41.9782
1299318452739,41.8609
1299318512739,41.7087
1299318572739,41.8069
1299318632739,42.0175
1299318692739,41.8613
1299318752739,41.9243
1299318812739,41.8890
1299318872739,41.9630
1299318932739,41.9159
1299318992739,42.0122
1299319052739,41.9357
1299319112739,42.0116
1299319172739,41.9408
1299319232751,41.9954
1299319292751,42.1173
1299319352751,42.0117
1299319412751,42.1364
1299319472751,41.9900
1299319532751,42.2340
1299319592751,42.1415
1299319652751,42.1030
1299319712751,42.2099
1299319772751,42.1034
1299319832751,42.1638
1299319892751,42.1023
1299319952751,42.1837
1299320012751,42.1790
1299320072751,42.1354
1299320132751,42.2346
1299320192751,42.2473
1299320252751,42.0791
1299320312751,42.1368
1299320372751,42.1287
1299320432751,42.1019
1299320492751,42.0210
1299320552751,42.2331
1299320612751,42.1968
1299320672751,42.0846
1299320732751,41.9906
1299320792751,42.1843
1299320852751,42.1681
1299320912751,42.0211
1299320972751,42.0974
1299321032751,42.1082
1299321092751,42.2464
1299321152751,42.1128
1299321212751,42.0385
1299321272751,42.1912
1299321332751,41.9862
1299321392751,42.0708
1299321452751,42.0977
1299321512751,42.0103
1299321572751,42.2057
1299321632751,41.9566
1299321692751,42.1335
1299321752751,42.0435
1299321812751,42.0615
1299321872751,42.0855
1299321932751,42.0883
1299321992751,42.0533
1299322052751,42.2423
1299322112751,42.1207
1299322172751,42.0040
1299322232751,42.1017
1299322292751,42.0587
1299322352751,42.1382
1299322412751,42.1244
1299322472751,42.1112
1299322532751,42.0038
1299322592751,42.0211
1299322652751,42.0884
1299322712751,41.9624
1299322772751,42.0738
1299322832763,42.1630
1299322892763,42.0126
1299322952763,42.0195
1299323012763,42.2560
1299323072763,42.0788
1299323132763,42.1313
1299323192763,42.0840
1299323252763,42.0450
1299323312763,42.1399
1299323372763,42.0935
1299323432763,42.1434
1299323492763,42.1461
1299323552763,41.9773
1299323612763,42.2328
1299323672763,42.1670
1299323732763,42.1648
1299323792763,42.2475
1299323852763,42.2667
1299323912763,42.2455
1299323972763,42.2187
1299324032763,42.2773
1299324092763,42.2640
1299324152763,42.3295
1299324212763,42.2956
1299324272763,42.3732
1299324332763,42.4275
1299324392763,42.3055
1299324452763,42.3460
1299324512763,42.2754
1299324572763,42.3133
1299324632763,42.3590
1299324692763,42.3571
1299324752763,42.1507
1299324812763,42.3007
1299324872763,42.2385
1299324932763,42.2651
1299324992763,42.3045
1299325052763,42.3078
1299325112763,42.3471
1299325172763,42.4103
1299325232763,42.2735
1299325292763,42.2911
1299325352763,42.3641
1299325412763,42.3354
1299325472763,42.3867
1299325532763,42.3676
1299325592763,42.4000
1299325652763,42.4683
1299325712763,42.3685
1299325772763,42.4975
1299325832763,42.4945
1299325892763,42.3358
1299325952763,42.5616
1299326012763,42.4252
1299326072763,42.3837
1299326132763,42.4541
1299326192763,42.5064
1299326252763,42.5052
1299326312763,42.4074
1299326372763,42.4438
1299326432774,42.5017
1299326492774,42.4062
1299326552774,42.3613
1299326612774,42.3976
1299326672774,42.3564
1299326732774,42.4580
1299326792774,42.3285
1299326852774,42.2926
1299326912774,42.3678
1299326972774,42.3557
1299327032774,42.3396
1299327092774,42.2359
1299327152774,42.3815
1299327212774,42.2386
1299327272774,42.4785
1299327332774,42.2471
1299327392774,42.2739
1299327452774,42.2777
1299327512774,42.3060
1299327572774,42.3054
1299327632774,42.2740
1299327692774,42.3050
1299327752774,42.4081
1299327812774,42.3014
1299327872774,42.2802
1299327932774,42.2765
1299327992774,42.2031
1299328052774,42.4167
1299328112774,42.2500
1299328172774,42.3838
1299328232774,42.4169
1299328292774,42.3121
1299328352774,42.4395
1299328412774,42.3710
1299328472774,42.4723
1299328532774,42.5130
1299328592774,42.4566
1299328652774,42.3992
1299328712774,42.5292
1299328772774,42.4744
1299328832774,42.5803
1299328892774,42.6101
1299328952774,42.6176
1299329012774,42.6190
1299329072774,42.5825
1299329132774,42.5550
1299329192774,42.5813
1299329252774,42.5345
1299329312774,42.4025
1299329372774,42.5042
1299329432774,42.6056
1299329492774,42.5640
1299329552774,42.7052
1299329612774,42.6201
1299329672774,42.4999
1299329732774,42.6048
1299329792774,42.6056
1299329852774,42.7090
1299329912774,42.5604
1299329972774,42.6494
1299330032785,42.5952
1299330092785,42.6253
1299330152785,42.5888
1299330212785,42.7455
1299330272785,42.6195
1299330332785,42.7008
1299330392785,42.6126
1299330452785,42.6629
1299330512785,42.6911
1299330572785,42.6681
1299330632785,42.7015
1299330692785,42.6324
1299330752785,42.7465
1299330812785,42.6903
1299330872785,42.8090
1299330932785,42.8799
1299330992785,42.7343
1299331052785,42.7979
1299331112785,42.9062
1299331172785,42.8707
1299331232785,42.8652
1299331292785,42.5663
1299331352785,42.8959
1299331412785,42.7785
1299331472785,42.8345
1299331532785,42.6552
1299331592785,42.7558
1299331652785,42.8625
1299331712785,42.6983
1299331772785,42.8101
1299331832785,42.9027
1299331892785,42.8686
1299331952785,42.8990
1299332012785,43.0005
1299332072785,42.8436
1299332132785,42.9218
1299332192785,43.0031
1299332252785,42.9486
1299332312785,43.0355
1299332372785,43.1406
1299332432785,43.1213
1299332492785,43.0387
1299332552785,42.9637
1299332612785,43.0135
1299332672785,43.0418
1299332732785,42.9441
1299332792785,43.0444
1299332852785,43.0907
1299332912785,42.9746
1299332972785,43.0241
1299333032785,43.0423
1299333092785,42.9684
1299333152785,43.1562
1299333212785,43.0743
1299333272785,42.9221
1299333332785,43.0574
1299333392785,43.1000
1299333452785,43.1326
1299333512785,43.1253
1299333572785,43.1904
1299333632797,43.1600
1299333692797,43.0048
1299333752797,42.9598
1299333812797,43.0777
1299333872797,42.9787
1299333932797,42.9223
1299333992797,42.9980
1299334052797,43.1757
1299334112797,42.9756
1299334172797,43.0760
1299334232797,42.8957
1299334292797,43.0361
1299334352797,43.0945
1299334412797,43.0948
1299334472797,43.0019
1299334532797,43.1414
1299334592797,43.0852
1299334652797,43.1413
1299334712797,43.2796
1299334772797,43.2618
1299334832797,43.2246
1299334892797,43.4096
1299334952797,43.3295
1299335012797,43.3803
1299335072797,43.3308
1299335132797,43.3145
1299335192797,43.4506
1299335252797,43.4541
1299335312797,43.2446
1299335372797,43.3494
1299335432797,43.3356
1299335492797,43.2855
1299335552797,43.3234
1299335612797,43.3849
1299335672797,43.2767
1299335732797,43.3476
1299335792797,43.3616
1299335852797,43.4508
1299335912797,43.3723
1299335972797,43.2757
1299336032797,43.3202
1299336092797,43.1864
1299336152797,43.2768
1299336212797,43.2162
1299336272797,43.0729
1299336332797,43.3296
1299336392797,43.1330
1299336452797,43.1966
1299336512797,43.1891
1299336572797,43.1696
1299336632797,43.1041
1299336692797,43.1499
1299336752797,43.1821
1299336812797,43.0451
1299336872797,43.1758
1299336932797,43.1696
1299336992797,43.1945
1299337052797,43.1054
1299337112797,43.1344
1299337172797,43.2256
1299337232808,43.0921
1299337292808,43.1314
1299337352808,43.2211
1299337412808,43.1521
1299337472808,43.2540
1299337532808,43.0443
1299337592808,43.0414
1299337652808,43.1567
1299337712808,43.2208
1299337772808,43.1607
1299337832808,43.0467
1299337892808,43.0767
1299337952808,43.0429
1299338012808,43.0843
1299338072808,43.1623
1299338132808,43.0598
1299338192808,43.1767
1299338252808,43.1266
1299338312808,43.1305
1299338372808,43.1773
1299338432808,43.1703
1299338492808,43.2978
1299338552808,43.1169
1299338612808,43.2103
1299338672808,43.2045
1299338732808,43.0961
1299338792808,43.1964
1299338852808,43.1873
1299338912808,43.0778
1299338972808,43.1681
1299339032808,43.0788
1299339092808,43.1970
1299339152808,43.1434
1299339212808,43.2165
1299339272808,43.1277
1299339332808,43.1763
1299339392808,43.1310
1299339452808,43.1075
1299339512808,43.2817
1299339572808,43.2710
1299339632808,43.0874
1299339692808,43.2589
1299339752808,43.1788
1299339812808,43.1552
1299339872808,43.2925
1299339932808,43.1550
1299339992808,43.2320
1299340052808,43.1660
1299340112808,43.1221
1299340172808,43.1279
1299340232808,43.2609
1299340292808,43.2746
1299340352808,43.2287
1299340412808,43.2272
1299340472808,43.3274
1299340532808,43.2020
1299340592808,43.3235
1299340652808,43.2406
1299340712808,43.3711
1299340772808,43.2655
1299340832819,43.2708
1299340892819,43.2441
1299340952819,43.1895
1299341012819,43.2919
1299341072819,43.3375
1299341132819,43.3755
1299341192819,43.3075
1299341252819,43.2076
1299341312819,43.3957
1299341372819,43.2438
1299341432819,43.3798
1299341492819,43.3565
1299341552819,43.3537
1299341612819,43.3173
1299341672819,43.3557
1299341732819,43.4802
1299341792819,43.3746
1299341852819,43.4077
1299341912819,43.2592
1299341972819,43.4058
1299342032819,43.3368
1299342092819,43.4323
1299342152819,43.4348
1299342212819,43.4368
1299342272819,43.3232
1299342332819,43.4991
1299342392819,43.3857
1299342452819,43.5319
1299342512819,43.4997
1299342572819,43.5583
1299342632819,43.5993
1299342692819,43.5205
1299342752819,43.5522
1299342812819,43.5015
1299342872819,43.5606
1299342932819,43.5654
1299342992819,43.5566
1299343052819,43.4894
1299343112819,43.5213
1299343172819,43.5365
1299343232819,43.5903
1299343292819,43.5976
1299343352819,43.5662
1299343412819,43.6037
1299343472819,43.4580
1299343532819,43.6415
1299343592819,43.6882
1299343652819,43.7035
1299343712819,43.6309
1299343772819,43.5146
1299343832819,43.5083
1299343892819,43.5680
1299343952819,43.5633
1299344012819,43.5738
1299344072819,43.7593
1299344132819,43.4796
1299344192819,43.5404
1299344252819,43.5606
1299344312819,43.5166
1299344372819,43.5490
1299344432830,43.5552
1299344492830,43.5489
1299344552830,43.6519
1299344612830,43.6600
1299344672830,43.5377
1299344732830,43.7868
1299344792830,43.7631
1299344852830,43.6602
1299344912830,43.6280
1299344972830,43.6374
1299345032830,43.6331
1299345092830,43.6596
1299345152830,43.7356
1299345212830,43.7169
1299345272830,43.7883
1299345332830,43.7302
1299345392830,43.8571
1299345452830,43.6356
1299345512830,43.7590
1299345572830,43.7775
1299345632830,43.7835
1299345692830,43.6949
1299345752830,43.6877
1299345812830,43.7483
1299345872830,43.7656
1299345932830,43.7947
1299345992830,43.8083
1299346052830,43.7796
1299346112830,43.8465
1299346172830,43.7720
1299346232830,43.7188
1299346292830,43.7567
1299346352830,43.7057
1299346412830,43.8513
1299346472830,43.8367
1299346532830,43.9436
1299346592830,43.7679
1299346652830,43.9319
1299346712830,43.9398
1299346772830,43.8592
1299346832830,43.9243
1299346892830,43.8940
1299346952830,44.0195
1299347012830,43.9335
1299347072830,44.0816
1299347132830,44.0550
1299347192830,44.0196
1299347252830,43.9688
1299347312830,44.0086
1299347372830,44.0591
1299347432830,44.1059
1299347492830,44.0605
1299347552830,44.1514
1299347612830,44.0933
1299347672830,44.0347
1299347732830,44.1391
1299347792830,44.1245
1299347852830,44.1205
1299347912830,44.3542
1299347972830,44.1170
1299348032841,44.2106
1299348092841,44.1273
1299348152841,44.2466
1299348212841,44.3701
1299348272841,44.3937
1299348332841,44.1859
1299348392841,44.1799
1299348452841,44.1350
1299348512841,44.3270
1299348572841,44.1044